UAL803 KIAD-RJTT

Flight info

Callsign UAL803
Flight time N/A
Altitude 33000
Route JERES2 JERES Q221 DLMAR/N0489F320 DCT BUF/N0487F340 DCT BURWA DCT 50N083W 55N089W 56N090W 61N100W 64N110W/N0481F360 65N120W 66N130W DCT GOATS DCT 65N160W 62N170W/N0480F380 DCT EPLOS DCT NATES/N0492F390 R220 NRKEY/N0490F400 R220 NUBDA/N0480F410 R220 NANAC/N0479F400 Y810 AKRIT Y807 RUSDA
Aircraft B772/H-SDE2E3FGHIJ5LORVWXY/LB1D1

Departure

Time 2026-05-06 17:02
Airport Washington Dulles International Airport (KIAD)

Arrival

Time N/A
Airport Tokyo Haneda International Airport (RJTT)
Time Latitude Longitude Altitude Speed Heading
2026-05-06 15:33 38.94588 -77.44950 305 ft 0 kts 188°
2026-05-06 16:46 38.94604 -77.44947 305 ft 4 kts 186°
2026-05-06 16:47 38.94630 -77.44944 304 ft 4 kts 197°
2026-05-06 16:47 38.94652 -77.44927 304 ft 4 kts 239°
2026-05-06 16:47 38.94659 -77.44896 306 ft 3 kts 270°
2026-05-06 16:47 38.94659 -77.44886 305 ft 0 kts 271°
2026-05-06 16:51 38.94659 -77.44894 306 ft 3 kts 270°
2026-05-06 16:52 38.94659 -77.44938 306 ft 7 kts 270°
2026-05-06 16:52 38.94659 -77.45013 304 ft 10 kts 270°
2026-05-06 16:52 38.94661 -77.45118 305 ft 14 kts 270°
2026-05-06 16:52 38.94661 -77.45244 305 ft 14 kts 271°
2026-05-06 16:53 38.94662 -77.45321 305 ft 8 kts 270°
2026-05-06 16:53 38.94663 -77.45394 305 ft 5 kts 271°
2026-05-06 16:53 38.94664 -77.45457 305 ft 7 kts 270°
2026-05-06 16:53 38.94664 -77.45515 305 ft 8 kts 270°
2026-05-06 16:54 38.94652 -77.45594 308 ft 10 kts 231°
2026-05-06 16:54 38.94594 -77.45610 306 ft 10 kts 179°
2026-05-06 16:54 38.94519 -77.45610 306 ft 11 kts 181°
2026-05-06 16:54 38.94440 -77.45613 307 ft 11 kts 181°
2026-05-06 16:55 38.94363 -77.45613 305 ft 12 kts 180°
2026-05-06 16:55 38.94271 -77.45614 307 ft 14 kts 180°
2026-05-06 16:55 38.94167 -77.45615 307 ft 16 kts 180°
2026-05-06 16:55 38.94051 -77.45617 307 ft 16 kts 181°
2026-05-06 16:56 38.93962 -77.45618 307 ft 12 kts 181°
2026-05-06 16:56 38.93874 -77.45620 305 ft 13 kts 181°
2026-05-06 16:56 38.93773 -77.45620 309 ft 14 kts 180°
2026-05-06 16:56 38.93686 -77.45597 306 ft 13 kts 141°
2026-05-06 16:57 38.93629 -77.45509 306 ft 10 kts 141°
2026-05-06 16:57 38.93564 -77.45506 308 ft 10 kts 202°
2026-05-06 16:57 38.93502 -77.45537 305 ft 5 kts 201°
2026-05-06 16:57 38.93501 -77.45538 305 ft 0 kts 200°
2026-05-06 16:59 38.93499 -77.45539 305 ft 2 kts 200°
2026-05-06 16:59 38.93472 -77.45552 308 ft 6 kts 201°
2026-05-06 17:00 38.93415 -77.45579 306 ft 11 kts 201°
2026-05-06 17:00 38.93375 -77.45622 306 ft 8 kts 255°
2026-05-06 17:00 38.93384 -77.45683 306 ft 3 kts 291°
2026-05-06 17:00 38.93385 -77.45685 306 ft 1 kts 291°
2026-05-06 17:01 38.93406 -77.45756 307 ft 23 kts 290°
2026-05-06 17:01 38.93552 -77.46252 308 ft 98 kts 290°
2026-05-06 17:01 38.93878 -77.47355 308 ft 165 kts 290°
2026-05-06 17:01 38.94375 -77.48919 607 ft 198 kts 290°
2026-05-06 17:02 38.95000 -77.50529 1465 ft 204 kts 294°
2026-05-06 17:02 38.95757 -77.51999 2384 ft 189 kts 293°
2026-05-06 17:02 38.96437 -77.53405 2896 ft 187 kts 301°
2026-05-06 17:02 38.97610 -77.54343 3002 ft 222 kts 342°
2026-05-06 17:03 38.99231 -77.54446 3046 ft 243 kts 351°
2026-05-06 17:03 39.00972 -77.54519 3075 ft 253 kts 351°
2026-05-06 17:03 39.02151 -77.54579 3294 ft 259 kts 351°
2026-05-06 17:03 39.03990 -77.54670 3685 ft 269 kts 351°
2026-05-06 17:04 39.05873 -77.54766 4241 ft 272 kts 350°
2026-05-06 17:04 39.07756 -77.54877 4935 ft 271 kts 350°
2026-05-06 17:04 39.09655 -77.54987 5521 ft 275 kts 350°
2026-05-06 17:04 39.11576 -77.55100 6080 ft 279 kts 349°
2026-05-06 17:05 39.13525 -77.55216 6661 ft 282 kts 349°
2026-05-06 17:05 39.15482 -77.55333 7322 ft 281 kts 349°
2026-05-06 17:05 39.17447 -77.55453 7883 ft 285 kts 349°
2026-05-06 17:05 39.19448 -77.55578 8408 ft 290 kts 349°
2026-05-06 17:06 39.21473 -77.55706 8986 ft 294 kts 349°
2026-05-06 17:06 39.23531 -77.55833 9568 ft 297 kts 349°
2026-05-06 17:06 39.25611 -77.55960 10082 ft 300 kts 349°
2026-05-06 17:06 39.27733 -77.56095 10354 ft 315 kts 349°
2026-05-06 17:07 39.29983 -77.56242 10476 ft 333 kts 350°
2026-05-06 17:07 39.32364 -77.56393 10633 ft 352 kts 350°
2026-05-06 17:07 39.34888 -77.56552 10782 ft 372 kts 351°
2026-05-06 17:07 39.37529 -77.56669 11141 ft 389 kts 355°
2026-05-06 17:08 39.40281 -77.56331 11704 ft 405 kts
2026-05-06 17:08 39.43055 -77.55450 12425 ft 416 kts 13°
2026-05-06 17:08 39.45793 -77.54181 13166 ft 420 kts 15°
2026-05-06 17:08 39.48519 -77.52874 13785 ft 426 kts 15°
2026-05-06 17:09 39.51343 -77.51527 14354 ft 430 kts 14°
2026-05-06 17:09 39.54170 -77.50197 14945 ft 433 kts 14°
2026-05-06 17:09 39.57014 -77.48875 15528 ft 436 kts 13°
2026-05-06 17:09 39.59849 -77.47565 16074 ft 441 kts 13°
2026-05-06 17:10 39.62769 -77.46386 16703 ft 438 kts
2026-05-06 17:10 39.65753 -77.45655 17262 ft 436 kts